OAS098 SCEL-SKBO

Flight info

Callsign OAS098
Flight time N/A
Altitude 36000
Route DONTI5B DONTI UQ802 SIRAM UL300 ROLUS UN420 ORBAB UM779 GIR GIR5E
Aircraft B77W/H-SDE1E2E3FGHIJ2J3J4J5M1RWXY/LB1D1

Departure

Time 2026-05-04 17:18
Airport Comodoro Arturo Merino Benítez International Airport (SCEL)

Arrival

Time N/A
Airport El Dorado International Airport (SKBO)
Time Latitude Longitude Altitude Speed Heading
2026-05-04 17:01 -33.39556 -70.79058 1569 ft 0 kts 192°
2026-05-04 17:05 -33.39548 -70.79056 1569 ft 4 kts 193°
2026-05-04 17:05 -33.39511 -70.79050 1569 ft 4 kts 148°
2026-05-04 17:06 -33.39495 -70.79089 1569 ft 4 kts 80°
2026-05-04 17:06 -33.39497 -70.79109 1569 ft 0 kts 88°
2026-05-04 17:11 -33.39495 -70.79025 1569 ft 16 kts 88°
2026-05-04 17:11 -33.39387 -70.78826 1569 ft 16 kts 29°
2026-05-04 17:12 -33.39282 -70.78796 1569 ft 16 kts 360°
2026-05-04 17:12 -33.39063 -70.78797 1569 ft 16 kts 360°
2026-05-04 17:13 -33.38733 -70.78827 1569 ft 16 kts 356°
2026-05-04 17:14 -33.38404 -70.78843 1569 ft 16 kts 357°
2026-05-04 17:14 -33.38294 -70.78850 1569 ft 16 kts 357°
2026-05-04 17:14 -33.38074 -70.78859 1569 ft 16 kts 356°
2026-05-04 17:15 -33.37964 -70.78868 1569 ft 16 kts 356°
2026-05-04 17:15 -33.37744 -70.78880 1569 ft 16 kts 357°
2026-05-04 17:16 -33.37619 -70.78738 1569 ft 16 kts 89°
2026-05-04 17:16 -33.37662 -70.78671 1569 ft 0 kts 174°
2026-05-04 17:17 -33.38248 -70.78636 1568 ft 123 kts 177°
2026-05-04 17:18 -33.39398 -70.78565 1610 ft 204 kts 178°
2026-05-04 17:18 -33.42387 -70.78483 3974 ft 216 kts 179°
2026-05-04 17:19 -33.45113 -70.79947 4661 ft 238 kts 245°
2026-05-04 17:19 -33.45602 -70.83891 5824 ft 242 kts 266°
2026-05-04 17:20 -33.46002 -70.87932 7139 ft 247 kts 266°
2026-05-04 17:20 -33.46473 -70.92008 8459 ft 248 kts 265°
2026-05-04 17:20 -33.46715 -70.94060 9144 ft 249 kts 266°
2026-05-04 17:21 -33.46330 -70.98027 10061 ft 244 kts 310°
2026-05-04 17:21 -33.43435 -71.00260 10698 ft 270 kts 340°
2026-05-04 17:22 -33.41573 -71.00987 10894 ft 293 kts 341°
2026-05-04 17:22 -33.39547 -71.01730 11043 ft 316 kts 341°
2026-05-04 17:23 -33.32648 -71.04338 12063 ft 366 kts 340°
2026-05-04 17:23 -33.30206 -71.05282 12813 ft 370 kts 340°
2026-05-04 17:23 -33.25258 -71.07210 14200 ft 379 kts 340°
2026-05-04 17:24 -33.22741 -71.08193 14832 ft 383 kts 339°
2026-05-04 17:24 -33.15035 -71.11202 16892 ft 395 kts 338°
2026-05-04 17:25 -33.12408 -71.12228 17514 ft 400 kts 338°
2026-05-04 17:25 -33.07056 -71.14314 18688 ft 409 kts 338°
2026-05-04 17:26 -33.01618 -71.16428 19957 ft 413 kts 337°
2026-05-04 17:26 -32.93223 -71.19278 21600 ft 433 kts 351°
2026-05-04 17:27 -32.87066 -71.19220 22779 ft 454 kts
2026-05-04 17:27 -32.80602 -71.19315 23309 ft 474 kts 359°
2026-05-04 17:28 -32.73867 -71.19454 23727 ft 499 kts 357°
2026-05-04 17:29 -32.62979 -71.19649 24092 ft 543 kts 357°
2026-05-04 17:29 -32.51298 -71.19845 25206 ft 570 kts 357°
2026-05-04 17:30 -32.39363 -71.20047 26544 ft 581 kts 357°
2026-05-04 17:31 -32.31222 -71.20189 27386 ft 587 kts 357°
2026-05-04 17:31 -32.18893 -71.20400 28399 ft 597 kts 357°
2026-05-04 17:32 -32.10502 -71.20547 28855 ft 603 kts 357°
2026-05-04 17:33 -31.98037 -71.20756 30202 ft 598 kts 357°
2026-05-04 17:33 -31.93885 -71.20828 30507 ft 597 kts 357°
2026-05-04 17:34 -31.81463 -71.21043 31630 ft 594 kts 357°
2026-05-04 17:34 -31.77327 -71.21083 31951 ft 595 kts 359°
2026-05-04 17:35 -31.64983 -71.20359 33011 ft 590 kts
2026-05-04 17:35 -31.56791 -71.19818 33579 ft 591 kts
2026-05-04 17:35 -31.52676 -71.19561 33745 ft 594 kts
2026-05-04 17:36 -31.48531 -71.19312 33929 ft 596 kts
2026-05-04 17:36 -31.44406 -71.19068 34257 ft 594 kts
2026-05-04 17:36 -31.40277 -71.18823 34595 ft 592 kts
2026-05-04 17:36 -31.36170 -71.18580 34910 ft 590 kts
2026-05-04 17:37 -31.32069 -71.18336 35107 ft 592 kts
2026-05-04 17:37 -31.27946 -71.18091 35281 ft 593 kts
2026-05-04 17:37 -31.23821 -71.17845 35435 ft 594 kts
2026-05-04 17:38 -31.15519 -71.17349 35528 ft 601 kts
2026-05-04 17:38 -31.11336 -71.17100 35651 ft 601 kts
2026-05-04 17:38 -31.07167 -71.16851 35833 ft 600 kts
2026-05-04 17:39 -30.94617 -71.16106 36002 ft 604 kts
2026-05-04 17:39 -30.86222 -71.15603 36004 ft 604 kts
2026-05-04 17:40 -30.77808 -71.15099 36009 ft 607 kts
2026-05-04 17:40 -30.69354 -71.14594 35982 ft 608 kts
2026-05-04 17:41 -30.60891 -71.14092 36003 ft 609 kts
2026-05-04 17:41 -30.52418 -71.13589 35998 ft 611 kts
2026-05-04 17:42 -30.43915 -71.13084 36012 ft 613 kts
2026-05-04 17:42 -30.35371 -71.12570 36005 ft 615 kts
2026-05-04 17:43 -30.28265 -71.12135 36012 ft 617 kts
2026-05-04 17:43 -30.19694 -71.11537 35976 ft 617 kts
2026-05-04 17:44 -30.11153 -71.10582 35998 ft 618 kts
2026-05-04 17:44 -30.02607 -71.09556 36016 ft 617 kts
2026-05-04 17:45 -29.94056 -71.08605 36006 ft 617 kts
2026-05-04 17:45 -29.85519 -71.07699 36009 ft 615 kts
2026-05-04 17:46 -29.76986 -71.06791 36017 ft 616 kts
2026-05-04 17:46 -29.68444 -71.05875 35980 ft 617 kts
2026-05-04 17:47 -29.59896 -71.04958 35994 ft 617 kts
2026-05-04 17:47 -29.51348 -71.04046 36014 ft 617 kts
2026-05-04 17:48 -29.42786 -71.03111 36002 ft 617 kts
2026-05-04 17:48 -29.34285 -71.01778 36012 ft 617 kts
2026-05-04 17:49 -29.25753 -71.00412 36002 ft 619 kts
2026-05-04 17:49 -29.17233 -70.99508 35995 ft 620 kts
2026-05-04 17:50 -29.08619 -70.98830 35978 ft 620 kts
2026-05-04 17:50 -29.00027 -70.98093 35996 ft 619 kts
2026-05-04 17:51 -28.91445 -70.97285 35996 ft 619 kts
2026-05-04 17:51 -28.82866 -70.96466 36002 ft 619 kts
2026-05-04 17:52 -28.74277 -70.95660 36003 ft 619 kts
2026-05-04 17:52 -28.65683 -70.94860 35999 ft 619 kts
2026-05-04 17:53 -28.57099 -70.94061 36010 ft 619 kts
2026-05-04 17:53 -28.48518 -70.93259 35999 ft 618 kts
2026-05-04 17:54 -28.39949 -70.92364 35984 ft 618 kts
2026-05-04 17:54 -28.31401 -70.91439 35999 ft 617 kts
2026-05-04 17:55 -28.22855 -70.90541 36013 ft 616 kts
2026-05-04 17:55 -28.14310 -70.89637 36007 ft 617 kts
2026-05-04 17:56 -28.05756 -70.88728 36002 ft 618 kts
2026-05-04 17:56 -27.97192 -70.87818 35999 ft 617 kts
2026-05-04 17:57 -27.88646 -70.86914 36002 ft 617 kts
2026-05-04 17:57 -27.80096 -70.86013 35991 ft 617 kts
2026-05-04 17:58 -27.71551 -70.85114 36008 ft 616 kts
2026-05-04 17:58 -27.63014 -70.84215 36005 ft 616 kts
2026-05-04 17:59 -27.54539 -70.83325 35995 ft 616 kts
2026-05-04 18:00 -27.41743 -70.81984 36001 ft 616 kts
2026-05-04 18:00 -27.33223 -70.81093 36001 ft 615 kts
2026-05-04 18:01 -27.24704 -70.80203 36002 ft 615 kts
2026-05-04 18:01 -27.16175 -70.79313 36003 ft 615 kts
2026-05-04 18:02 -27.03390 -70.77983 36000 ft 615 kts
2026-05-04 18:02 -26.94864 -70.77097 36004 ft 615 kts
2026-05-04 18:03 -26.86344 -70.76213 35998 ft 616 kts
2026-05-04 18:03 -26.77802 -70.75328 36004 ft 617 kts
2026-05-04 18:04 -26.69257 -70.74444 36006 ft 616 kts
2026-05-04 18:05 -26.56528 -70.72479 36003 ft 615 kts
2026-05-04 18:05 -26.48069 -70.70978 35999 ft 615 kts
2026-05-04 18:06 -26.35338 -70.69491 36007 ft 613 kts
2026-05-04 18:06 -26.26817 -70.68805 36003 ft 613 kts
2026-05-04 18:07 -26.18305 -70.68087 35998 ft 614 kts
2026-05-04 18:07 -26.09787 -70.67334 36003 ft 614 kts
2026-05-04 18:08 -26.01281 -70.66578 36000 ft 614 kts
2026-05-04 18:08 -25.92825 -70.65832 36003 ft 614 kts
2026-05-04 18:09 -25.75756 -70.64336 36008 ft 617 kts
2026-05-04 18:10 -25.67174 -70.63584 36001 ft 619 kts
2026-05-04 18:10 -25.58587 -70.62834 35994 ft 619 kts
2026-05-04 18:11 -25.50008 -70.62085 35999 ft 618 kts
2026-05-04 18:11 -25.41445 -70.61339 36000 ft 616 kts
2026-05-04 18:12 -25.32902 -70.60605 36000 ft 615 kts
2026-05-04 18:12 -25.24382 -70.59878 36003 ft 614 kts
2026-05-04 18:13 -25.15861 -70.59150 35995 ft 613 kts
2026-05-04 18:14 -25.03118 -70.58061 35997 ft 612 kts
2026-05-04 18:14 -24.94623 -70.57336 36002 ft 612 kts
2026-05-04 18:15 -24.77640 -70.56021 35998 ft 612 kts 359°
2026-05-04 18:16 -24.69127 -70.56073 36004 ft 612 kts 358°
2026-05-04 18:16 -24.60606 -70.56193 35999 ft 614 kts 358°
2026-05-04 18:17 -24.47836 -70.56276 36003 ft 615 kts 358°
2026-05-04 18:18 -24.34946 -70.56330 35999 ft 615 kts 358°
2026-05-04 18:18 -24.26451 -70.56374 36003 ft 614 kts 358°
2026-05-04 18:19 -24.13578 -70.56450 36004 ft 614 kts 358°
2026-05-04 18:19 -24.05023 -70.56516 36003 ft 614 kts 358°
2026-05-04 18:20 -23.96535 -70.56579 36002 ft 614 kts 358°
2026-05-04 18:20 -23.87932 -70.56641 36001 ft 614 kts 358°
2026-05-04 18:21 -23.79447 -70.56701 36000 ft 614 kts 358°
2026-05-04 18:21 -23.70911 -70.56698 36003 ft 613 kts 359°
2026-05-04 18:22 -23.62372 -70.56638 36005 ft 613 kts 359°
2026-05-04 18:22 -23.53837 -70.56584 36000 ft 613 kts 359°
2026-05-04 18:23 -23.45296 -70.56545 35989 ft 615 kts 360°
2026-05-04 18:23 -23.36736 -70.56510 36001 ft 615 kts 359°
2026-05-04 18:24 -23.28169 -70.56474 35998 ft 615 kts 359°
2026-05-04 18:24 -23.19612 -70.56436 36010 ft 615 kts 359°
2026-05-04 18:25 -23.11046 -70.56399 36006 ft 616 kts 359°
2026-05-04 18:25 -23.02488 -70.56360 35998 ft 615 kts 359°
2026-05-04 18:26 -22.93923 -70.56322 36001 ft 615 kts 359°
2026-05-04 18:26 -22.85380 -70.56272 35996 ft 614 kts 359°
2026-05-04 18:27 -22.76836 -70.56111 36000 ft 614 kts 360°
2026-05-04 18:27 -22.68294 -70.55916 36001 ft 613 kts 360°
2026-05-04 18:28 -22.59768 -70.55739 35999 ft 613 kts 360°
2026-05-04 18:28 -22.51237 -70.55578 36000 ft 613 kts 360°
2026-05-04 18:29 -22.42718 -70.55419 36007 ft 613 kts 360°
2026-05-04 18:29 -22.34193 -70.55257 36004 ft 613 kts 360°
2026-05-04 18:30 -22.21449 -70.55013 36002 ft 613 kts 360°
2026-05-04 18:31 -22.14302 -70.54877 36002 ft 613 kts 360°
2026-05-04 18:31 -22.04393 -70.54688 36000 ft 613 kts 360°
2026-05-04 18:32 -21.95859 -70.54526 36003 ft 613 kts 360°
2026-05-04 18:32 -21.88708 -70.54391 36003 ft 613 kts 359°
2026-05-04 18:33 -21.80220 -70.54311 36001 ft 613 kts 359°
2026-05-04 18:33 -21.71631 -70.54291 35998 ft 613 kts 359°
2026-05-04 18:34 -21.63099 -70.54259 35999 ft 614 kts 359°
2026-05-04 18:34 -21.54555 -70.54209 36004 ft 614 kts 359°
2026-05-04 18:35 -21.46072 -70.54159 35994 ft 614 kts 359°
2026-05-04 18:35 -21.37524 -70.54112 36006 ft 614 kts 359°
2026-05-04 18:36 -21.28983 -70.54065 35999 ft 614 kts 359°
2026-05-04 18:36 -21.20434 -70.54018 35999 ft 614 kts 359°
2026-05-04 18:37 -21.11895 -70.53971 36003 ft 614 kts 359°
2026-05-04 18:37 -21.03357 -70.53925 35998 ft 614 kts 359°
2026-05-04 18:38 -20.94803 -70.53878 36003 ft 614 kts 359°
2026-05-04 18:38 -20.86266 -70.53831 36002 ft 614 kts 359°
2026-05-04 18:39 -20.77734 -70.53785 35999 ft 613 kts 359°
2026-05-04 18:39 -20.69194 -70.53739 36000 ft 614 kts 359°
2026-05-04 18:40 -20.60656 -70.53692 35997 ft 614 kts 359°
2026-05-04 18:40 -20.52121 -70.53639 35999 ft 613 kts 359°
2026-05-04 18:41 -20.43580 -70.53583 36003 ft 613 kts 359°
2026-05-04 18:41 -20.35042 -70.53528 36002 ft 613 kts 359°
2026-05-04 18:42 -20.26506 -70.53474 36002 ft 613 kts 359°
2026-05-04 18:42 -20.17971 -70.53420 35998 ft 613 kts 359°
2026-05-04 18:43 -20.09433 -70.53366 36003 ft 613 kts 359°
2026-05-04 18:43 -20.00900 -70.53318 36001 ft 613 kts 358°
2026-05-04 18:44 -19.92413 -70.53967 36009 ft 610 kts 350°
2026-05-04 18:44 -19.83996 -70.55105 36008 ft 610 kts 349°
2026-05-04 18:45 -19.75564 -70.56211 35997 ft 611 kts 350°
2026-05-04 18:45 -19.67112 -70.57251 36003 ft 611 kts 351°
2026-05-04 18:46 -19.58658 -70.58281 36000 ft 611 kts 351°
2026-05-04 18:46 -19.50209 -70.59275 35994 ft 612 kts 354°
2026-05-04 18:47 -19.41736 -70.59170 36006 ft 614 kts
2026-05-04 18:47 -19.33310 -70.57742 36000 ft 613 kts 14°
2026-05-04 18:48 -19.25004 -70.55651 36003 ft 613 kts 15°
2026-05-04 18:48 -19.16703 -70.53581 36001 ft 614 kts 14°
2026-05-04 18:49 -19.08370 -70.51578 36000 ft 614 kts 16°
2026-05-04 18:49 -19.00047 -70.49606 36008 ft 612 kts 16°
2026-05-04 18:50 -18.91756 -70.47636 35995 ft 610 kts 16°
2026-05-04 18:50 -18.83474 -70.45662 35996 ft 609 kts 16°
2026-05-04 18:51 -18.75223 -70.43697 35999 ft 607 kts 16°
2026-05-04 18:51 -18.66991 -70.41739 36000 ft 607 kts 16°
2026-05-04 18:52 -18.58756 -70.39783 36002 ft 606 kts 16°
2026-05-04 18:52 -18.50533 -70.37831 36003 ft 606 kts 16°
2026-05-04 18:53 -18.42273 -70.36000 35994 ft 609 kts 10°
2026-05-04 18:53 -18.33797 -70.35634 36013 ft 612 kts 357°
2026-05-04 18:54 -18.25378 -70.36879 36007 ft 612 kts 346°
2026-05-04 18:54 -18.17051 -70.38815 36006 ft 613 kts 346°
2026-05-04 18:55 -18.08698 -70.40714 36003 ft 615 kts 347°
2026-05-04 18:55 -17.96109 -70.43427 35996 ft 617 kts 347°
2026-05-04 18:56 -17.87680 -70.45229 36004 ft 618 kts 347°
2026-05-04 18:56 -17.79247 -70.47043 36002 ft 619 kts 347°
2026-05-04 18:57 -17.70804 -70.48860 35994 ft 620 kts 347°
2026-05-04 18:57 -17.62341 -70.50679 35983 ft 621 kts 347°
2026-05-04 18:58 -17.53889 -70.52495 36008 ft 620 kts 347°
2026-05-04 18:58 -17.45439 -70.54306 36004 ft 619 kts 347°
2026-05-04 18:59 -17.36995 -70.56110 36011 ft 620 kts 347°
2026-05-04 18:59 -17.28583 -70.57908 36006 ft 622 kts 347°
2026-05-04 19:00 -17.20089 -70.59724 35994 ft 623 kts 347°
2026-05-04 19:00 -17.11583 -70.61539 36002 ft 624 kts 347°
2026-05-04 19:01 -17.03066 -70.63355 36002 ft 625 kts 347°
2026-05-04 19:01 -16.94521 -70.65174 35996 ft 627 kts 347°
2026-05-04 19:02 -16.85987 -70.66990 35993 ft 625 kts 347°
2026-05-04 19:02 -16.77477 -70.68800 36007 ft 625 kts 347°
2026-05-04 19:03 -16.68958 -70.70610 35904 ft 625 kts 347°
2026-05-04 19:03 -16.60447 -70.72419 35862 ft 623 kts 347°
2026-05-04 19:04 -16.56204 -70.73321 35997 ft 622 kts 347°
2026-05-04 19:04 -16.51964 -70.74228 35945 ft 622 kts 347°
2026-05-04 19:04 -16.43523 -70.76043 35968 ft 616 kts 346°
2026-05-04 19:05 -16.35164 -70.77836 35966 ft 612 kts 347°
2026-05-04 19:05 -16.26832 -70.79599 35967 ft 612 kts 347°
2026-05-04 19:06 -16.18493 -70.81359 36021 ft 611 kts 347°
2026-05-04 19:06 -16.10144 -70.83121 36003 ft 613 kts 347°
2026-05-04 19:07 -16.01777 -70.84890 36000 ft 614 kts 347°
2026-05-04 19:07 -15.93394 -70.86660 36004 ft 615 kts 347°